{"data":{"norad_id":58060,"epoch":"2026-09-20T14:02:04.636032Z","epoch_age_seconds":130336,"freshness":"FRESH","line1":"1 58060U 23158K   26263.58477588 -.00000135  00000+0  46104-5 0  9998","line2":"2 58060  43.0027   6.6301 0001625 270.8618  89.2048 15.27577139163377","mean_motion":15.27577139,"eccentricity":0.0001625,"inclination_deg":43.0027,"raan_deg":6.6301,"arg_perigee_deg":270.8618,"mean_anomaly_deg":89.2048,"bstar":4.6104e-6,"rev_number":16337,"period_min":94.266925265893,"perigee_km":481.94271878354,"apogee_km":484.17260704899,"semimajor_km":6861.1946629163,"source":"CELESTRAK","updated_at":"2026-09-21T09:00:33.778754Z"}}